Flag for Chile Weather past 2 weeks in Viña del Mar, Chile

Now
52 °F

Clear.


Feels Like: 51 °F
Forecast: 52 / 69 °F
Wind: 3 mph from North

Location: Pudahuel

Current Time: Sep 15, 2014 at 2:06:15 AM

Latest Report: Sep 15, 2014 at 1:00 AM


Visibility: 10 mi

Pressure: 30.12 "Hg

Humidity: 67%

Dew point: 41 °F

Location of Viña del MarLocation

Historic Weather in Viña del Mar — Graph

°F

Viña del Mar temperature yesterday

Maximum temperature yesterday: 70 °F (at 5:00 PM)
Minimum temperature yesterday: 43 °F (at 7:00 AM)
Average temperature yesterday: 55 °F

Past Weeks' High & Low Weather Summary

 TemperatureHumidityPressure
High73 °F (Sep 7, 5:00 PM)100% (Sep 14, 9:00 AM)30.30 "Hg (Sep 14, 9:00 AM)
Low36 °F (Sep 11, 5:00 AM)23% (Sep 7, 5:00 PM)29.86 "Hg (Sep 1, 4:00 AM)
Average52 °F74%30.05 "Hg
* Reported Midnight between Aug 30 and Aug 31 — Sep 15 1:00 AM, Viña del Mar, Weather by CustomWeather, © 2014

Note: Actual official high and low records may vary slightly from our data, if they occured in-between our weather recording intervals... More about our weather records

Advertising

Viña del Mar weather history for previous 24 hours

 ConditionsComfort  
Time TempWeatherWind HumidityBarometerVisibility
1:00 AM
Sep 15
52 °FClear.3 mph67%30.12 "Hg10 mi
12:00 AM50 °FClear.1 mph76%30.15 "Hg10 mi
11:00 PM
Sep 14
54 °FClear.3 mph72%30.15 "Hg10 mi
10:00 PM57 °FPassing clouds.3 mph59%30.15 "HgN/A
9:00 PM61 °FClear.6 mph63%30.15 "Hg10 mi
8:00 PM64 °FClear.6 mph52%30.15 "Hg10 mi
7:00 PM68 °FClear.7 mph43%30.12 "Hg10 mi
6:00 PM70 °FPassing clouds.7 mph43%30.15 "HgN/A
5:00 PM70 °FPassing clouds.6 mph43%30.15 "HgN/A
4:00 PM68 °FSunny.2 mph43%30.15 "Hg10 mi
3:00 PM66 °FPassing clouds.5 mph37%30.18 "HgN/A
2:00 PM63 °FSunny.1 mph56%30.21 "Hg10 mi
1:00 PM59 °FSunny.2 mph63%30.24 "Hg10 mi
12:00 PM57 °FPassing clouds.2 mph72%30.27 "HgN/A
11:00 AM54 °FPassing clouds.1 mph77%30.30 "Hg5 mi
10:00 AM48 °FHaze.5 mph94%30.30 "Hg3 mi
9:00 AM43 °FQuite cool.3 mph100%30.30 "Hg2 mi
8:00 AM43 °FFog.3 mph93%30.27 "Hg0 mi
7:00 AM43 °FQuite cool.2 mph93%30.27 "Hg2 mi
6:00 AM45 °FQuite cool.3 mph93%30.27 "Hg2 mi
5:00 AM46 °FOvercast.2 mph93%30.27 "Hg4 mi
4:00 AM46 °FCool.2 mph87%30.27 "Hg3 mi
3:00 AM46 °FPassing clouds.2 mph93%30.30 "Hg5 mi
2:00 AM48 °FPassing clouds.3 mph87%30.30 "HgN/A
Weather by CustomWeather, © 2014

See weather overviewHow to use our weather pages